Location: Observatory
(52.1446°N, 0.4624°W)
Time: 15:34:27
(UTC+00:00)

ISS - Pass Details

Date: 11 November 2018
Orbit: 401 x 408 km, 51.6° (Epoch: 20 November)

Event Time Altitude Azimuth Distance (km) Brightness Sun altitude
Exits shadow 04:08:34 15° 110° (ESE) 1,204 -0.8 -28.5°
Drops below altitude 10° 04:09:13 10° 109° (ESE) 1,463 -0.3 -28.4°
Sets 04:11:18 0° 107° (ESE) 2,323 1.0 -28.1°
